This is the latest recevied weather packets stored in our database for station/object WZ8H. If no packets are shown the sender has not sent any weather packets the latest 1 day(s).
| Time | Temp. | Humidity | Pressure | Rain* | Wind** | Luminosity | Snow |
|---|---|---|---|---|---|---|---|
| 1778042705 | 8.89° C | 95% | 1008 hPa | 1.27 mm | - | 0 W/m² | - |
| 1778041765 | 8.89° C | 95% | 1008 hPa | 1.27 mm | - | 0 W/m² | - |
| 1778041448 | 8.89° C | 95% | 1008 hPa | 1.27 mm | - | 0 W/m² | - |
| 1778041150 | 9.44° C | 95% | 1008 hPa | 1.02 mm | - | 0 W/m² | - |
| 1778040541 | 9.44° C | 95% | 1008.1 hPa | 1.52 mm | - | 0 W/m² | - |
| 1778040248 | 9.44° C | 95% | 1007.9 hPa | 1.27 mm | - | 0 W/m² | - |
| 1778039640 | 9.44° C | 95% | 1007.8 hPa | 1.52 mm | - | 0 W/m² | - |
| 1778039314 | 9.44° C | 95% | 1008 hPa | 1.52 mm | - | 0 W/m² | - |
| 1778038986 | 9.44° C | 95% | 1008.1 hPa | 1.78 mm | - | 0 W/m² | - |
| 1778038381 | 9.44° C | 95% | 1008.2 hPa | 1.78 mm | - | 0 W/m² | - |
| 1778038073 | 9.44° C | 95% | 1008.4 hPa | 1.78 mm | - | 0 W/m² | - |
| 1778037773 | 8.89° C | 95% | 1008.5 hPa | 2.03 mm | - | 0 W/m² | - |
| 1778037445 | 8.89° C | 95% | 1008.6 hPa | 1.78 mm | - | 0 W/m² | - |
| 1778036817 | 8.89° C | 95% | 1008.5 hPa | 2.03 mm | - | 0 W/m² | - |
| 1778036182 | 8.89° C | 95% | 1008.5 hPa | 2.29 mm | - | 0 W/m² | - |
| 1778035878 | 8.89° C | 95% | 1008.7 hPa | 2.29 mm | - | 0 W/m² | - |
| 1778035553 | 8.89° C | 95% | 1008.6 hPa | 2.29 mm | - | 0 W/m² | - |
| 1778035246 | 8.89° C | 95% | 1008.4 hPa | 2.29 mm | - | 0 W/m² | - |
| 1778034946 | 8.89° C | 95% | 1008.6 hPa | 2.29 mm | - | 0 W/m² | - |
| 1778034632 | 9.44° C | 95% | 1008.5 hPa | 2.03 mm | - | 0 W/m² | - |
| 1778034332 | 9.44° C | 95% | 1008.4 hPa | 2.03 mm | - | 0 W/m² | - |
| 1778034031 | 9.44° C | 95% | 1008.5 hPa | 1.78 mm | - | 0 W/m² | - |
| 1778033727 | 8.89° C | 95% | 1008.4 hPa | 1.52 mm | - | 0 W/m² | - |
| 1778033435 | 8.89° C | 94% | 1008.3 hPa | 1.52 mm | - | 0 W/m² | - |
| 1778033107 | 9.44° C | 94% | 1008.2 hPa | 1.27 mm | - | 0 W/m² | - |
* Rain latest hour (hover to see other rain measurements)
** Current wind speed in m/s (hover to see current wind gust speed)